When you browse on this site, cookies collect data to enhance your experience and personalize the content and advertising you see.
Visit our Privacy Policy to learn more. By continuing to use the site, you agree to this use of cookies and data.
  • în România
  • Lista ţărilor
  • Pe 7 zile
  • Temperatura apei
  • Meteo pe hartă
  • Widget-uri
  • user-avatar
    Intrare

    Meteo pe oră la Boa Vista

    Astăzi, 31 Mai, Duminică

    Timp Temperatura Precipitaţii Vânt Presiune Umiditate
    00:00 +27°C° 0.2 mm 1 m/s 754 mmHg 89%
    01:00 +26°C° 0.2 mm 1 m/s 753 mmHg 90%
    02:00 +26°C° 0.2 mm 1 m/s 753 mmHg 91%
    03:00 +26°C° 0 mm 1 m/s 753 mmHg 91%
    04:00 +26°C° 0 mm 1 m/s 753 mmHg 91%
    05:00 +25°C° 0 mm 1 m/s 753 mmHg 92%
    06:00 +26°C° 0 mm 2 m/s 754 mmHg 88%
    07:00 +27°C° 0 mm 2 m/s 754 mmHg 84%
    08:00 +28°C° 0 mm 3 m/s 755 mmHg 80%
    09:00 +30°C° 0 mm 3 m/s 754 mmHg 75%
    10:00 +31°C° 0 mm 3 m/s 754 mmHg 69%
    11:00 +34°C° 0 mm 3 m/s 754 mmHg 63%
    12:00 +34°C° 0.1 mm 3 m/s 753 mmHg 61%
    13:00 +35°C° 0.1 mm 3 m/s 753 mmHg 59%
    14:00 +35°C° 0.1 mm 3 m/s 752 mmHg 57%
    15:00 +35°C° 0.1 mm 2 m/s 752 mmHg 60%
    16:00 +34°C° 0.1 mm 2 m/s 751 mmHg 63%
    17:00 +34°C° 0.1 mm 2 m/s 751 mmHg 66%
    18:00 +31°C° 0.5 mm 2 m/s 752 mmHg 71%
    19:00 +30°C° 0.5 mm 2 m/s 752 mmHg 76%
    20:00 +28°C° 0.5 mm 2 m/s 753 mmHg 81%
    21:00 +28°C° 0.1 mm 2 m/s 753 mmHg 83%
    22:00 +27°C° 0.1 mm 2 m/s 754 mmHg 85%
    23:00 +27°C° 0.1 mm 2 m/s 754 mmHg 88%

    Mâine, 1 Iunie, Luni

    Timp Temperatura Precipitaţii Vânt Presiune Umiditate
    00:00 +27°C° 0.1 mm 2 m/s 754 mmHg 88%
    01:00 +27°C° 0.1 mm 2 m/s 753 mmHg 88%
    02:00 +26°C° 0.1 mm 2 m/s 753 mmHg 88%
    03:00 +26°C° 0 mm 2 m/s 753 mmHg 88%
    04:00 +26°C° 0 mm 2 m/s 753 mmHg 88%
    05:00 +26°C° 0 mm 3 m/s 753 mmHg 88%
    06:00 +27°C° 0 mm 3 m/s 754 mmHg 86%
    07:00 +27°C° 0 mm 3 m/s 755 mmHg 84%
    08:00 +28°C° 0 mm 4 m/s 755 mmHg 81%
    09:00 +29°C° 0.5 mm 4 m/s 755 mmHg 78%
    10:00 +30°C° 0.5 mm 3 m/s 755 mmHg 74%
    11:00 +31°C° 0.5 mm 3 m/s 755 mmHg 71%
    12:00 +33°C° 0.1 mm 3 m/s 754 mmHg 67%
    13:00 +34°C° 0.1 mm 2 m/s 753 mmHg 64%
    14:00 +34°C° 0.1 mm 2 m/s 752 mmHg 61%
    15:00 +34°C° 0 mm 2 m/s 752 mmHg 63%
    16:00 +34°C° 0 mm 2 m/s 751 mmHg 64%
    17:00 +32°C° 0 mm 1 m/s 751 mmHg 66%
    18:00 +31°C° 0 mm 1 m/s 752 mmHg 70%
    19:00 +30°C° 0 mm 1 m/s 752 mmHg 73%
    20:00 +29°C° 0 mm 1 m/s 753 mmHg 76%
    21:00 +28°C° 1.3 mm 1 m/s 753 mmHg 80%
    22:00 +27°C° 1.3 mm 2 m/s 754 mmHg 84%
    23:00 +27°C° 1.3 mm 2 m/s 754 mmHg 87%

    Poimâine, 2 Iunie, Marţi

    Timp Temperatura Precipitaţii Vânt Presiune Umiditate
    00:00 +27°C° 1.2 mm 2 m/s 754 mmHg 88%
    01:00 +26°C° 1.2 mm 2 m/s 753 mmHg 89%
    02:00 +26°C° 1.2 mm 2 m/s 753 mmHg 90%
    03:00 +26°C° 0.6 mm 2 m/s 753 mmHg 91%
    04:00 +26°C° 0.6 mm 2 m/s 753 mmHg 92%
    05:00 +25°C° 0.6 mm 2 m/s 753 mmHg 92%
    06:00 +26°C° 0.3 mm 3 m/s 754 mmHg 90%
    07:00 +27°C° 0.3 mm 4 m/s 754 mmHg 88%
    08:00 +28°C° 0.3 mm 4 m/s 755 mmHg 85%
    09:00 +29°C° 0.3 mm 4 m/s 755 mmHg 82%
    10:00 +30°C° 0.3 mm 4 m/s 755 mmHg 79%
    11:00 +31°C° 0.3 mm 3 m/s 755 mmHg 76%
    12:00 +30°C° 1.4 mm 4 m/s 754 mmHg 77%
    13:00 +30°C° 1.4 mm 4 m/s 753 mmHg 78%
    14:00 +30°C° 1.4 mm 4 m/s 752 mmHg 79%
    15:00 +30°C° 0.3 mm 4 m/s 752 mmHg 79%
    16:00 +29°C° 0.3 mm 3 m/s 752 mmHg 79%
    17:00 +29°C° 0.3 mm 3 m/s 751 mmHg 80%
    18:00 +28°C° 0 mm 2 m/s 752 mmHg 82%
    19:00 +27°C° 0 mm 2 m/s 752 mmHg 84%
    20:00 +27°C° 0 mm 2 m/s 752 mmHg 87%
    21:00 +26°C° 0 mm 2 m/s 753 mmHg 87%
    22:00 +26°C° 0 mm 2 m/s 753 mmHg 88%
    23:00 +26°C° 0 mm 2 m/s 753 mmHg 88%

    3 Iunie, Miercuri

    Timp Temperatura Precipitaţii Vânt Presiune Umiditate
    00:00 +26°C° 0.3 mm 2 m/s 753 mmHg 89%
    01:00 +25°C° 0.3 mm 2 m/s 753 mmHg 90%
    02:00 +25°C° 0.3 mm 1 m/s 752 mmHg 92%
    03:00 +25°C° 0.6 mm 1 m/s 752 mmHg 93%
    04:00 +25°C° 0.6 mm 1 m/s 753 mmHg 94%
    05:00 +25°C° 0.6 mm 1 m/s 753 mmHg 95%
    06:00 +25°C° 0 mm 2 m/s 753 mmHg 92%
    07:00 +26°C° 0 mm 3 m/s 754 mmHg 89%
    08:00 +27°C° 0 mm 3 m/s 754 mmHg 86%
    09:00 +29°C° 0.3 mm 4 m/s 754 mmHg 82%
    10:00 +30°C° 0.3 mm 4 m/s 754 mmHg 77%
    11:00 +32°C° 0.3 mm 4 m/s 754 mmHg 72%
    12:00 +33°C° 0.4 mm 4 m/s 753 mmHg 68%
    13:00 +33°C° 0.4 mm 3 m/s 752 mmHg 65%
    14:00 +34°C° 0.4 mm 3 m/s 751 mmHg 62%
    15:00 +34°C° 0 mm 3 m/s 750 mmHg 63%
    16:00 +34°C° 0 mm 2 m/s 750 mmHg 64%
    17:00 +34°C° 0 mm 2 m/s 750 mmHg 66%
    18:00 +31°C° 0 mm 1 m/s 750 mmHg 69%
    19:00 +30°C° 0 mm 1 m/s 751 mmHg 73%
    20:00 +29°C° 0 mm 1 m/s 751 mmHg 76%
    21:00 +28°C° 0.1 mm 1 m/s 752 mmHg 79%
    22:00 +28°C° 0.1 mm 2 m/s 752 mmHg 82%
    23:00 +27°C° 0.1 mm 2 m/s 753 mmHg 85%

    4 Iunie, Joi

    Timp Temperatura Precipitaţii Vânt Presiune Umiditate
    00:00 +27°C° 0.2 mm 3 m/s 752 mmHg 86%
    01:00 +26°C° 0.2 mm 3 m/s 752 mmHg 87%
    02:00 +26°C° 0.2 mm 3 m/s 752 mmHg 88%
    03:00 +26°C° 0.6 mm 3 m/s 752 mmHg 88%
    04:00 +26°C° 0.6 mm 3 m/s 752 mmHg 89%
    05:00 +26°C° 0.6 mm 3 m/s 752 mmHg 89%
    06:00 +27°C° 0 mm 3 m/s 753 mmHg 87%
    07:00 +27°C° 0 mm 3 m/s 753 mmHg 84%
    08:00 +28°C° 0 mm 4 m/s 754 mmHg 82%
    09:00 +30°C° 0.1 mm 4 m/s 753 mmHg 76%
    10:00 +32°C° 0.1 mm 4 m/s 753 mmHg 70%
    11:00 +33°C° 0.1 mm 3 m/s 753 mmHg 65%
    12:00 +34°C° 0.1 mm 3 m/s 753 mmHg 63%
    13:00 +34°C° 0.1 mm 3 m/s 752 mmHg 62%
    14:00 +34°C° 0.1 mm 3 m/s 751 mmHg 60%
    15:00 +34°C° 0 mm 3 m/s 751 mmHg 62%
    16:00 +34°C° 0 mm 2 m/s 751 mmHg 64%
    17:00 +32°C° 0 mm 2 m/s 750 mmHg 66%
    18:00 +31°C° 0 mm 2 m/s 751 mmHg 71%
    19:00 +30°C° 0 mm 1 m/s 752 mmHg 75%
    20:00 +28°C° 0 mm 1 m/s 752 mmHg 79%
    21:00 +28°C° 0.1 mm 1 m/s 753 mmHg 81%
    22:00 +28°C° 0.1 mm 1 m/s 753 mmHg 82%
    23:00 +27°C° 0.1 mm 1 m/s 753 mmHg 84%

    5 Iunie, Vineri

    Timp Temperatura Precipitaţii Vânt Presiune Umiditate
    00:00 +27°C° 0 mm 1 m/s 753 mmHg 84%
    01:00 +27°C° 0 mm 1 m/s 753 mmHg 85%
    02:00 +26°C° 0 mm 1 m/s 752 mmHg 86%
    03:00 +26°C° 0 mm 1 m/s 753 mmHg 86%
    04:00 +26°C° 0 mm 1 m/s 753 mmHg 87%
    05:00 +26°C° 0 mm 1 m/s 753 mmHg 88%
    06:00 +27°C° 0 mm 2 m/s 753 mmHg 85%
    07:00 +28°C° 0 mm 2 m/s 754 mmHg 82%
    08:00 +28°C° 0 mm 2 m/s 755 mmHg 79%
    09:00 +30°C° 0.1 mm 2 m/s 755 mmHg 73%
    10:00 +31°C° 0.1 mm 3 m/s 755 mmHg 66%
    11:00 +34°C° 0.1 mm 3 m/s 754 mmHg 59%
    12:00 +34°C° 0 mm 3 m/s 754 mmHg 56%
    13:00 +35°C° 0 mm 3 m/s 753 mmHg 54%
    14:00 +36°C° 0 mm 3 m/s 752 mmHg 51%
    15:00 +35°C° 0 mm 3 m/s 752 mmHg 54%
    16:00 +35°C° 0 mm 2 m/s 751 mmHg 57%
    17:00 +34°C° 0 mm 2 m/s 751 mmHg 60%
    18:00 +32°C° 0 mm 2 m/s 752 mmHg 63%
    19:00 +31°C° 0 mm 1 m/s 752 mmHg 66%
    20:00 +29°C° 0 mm 1 m/s 753 mmHg 69%
    21:00 +29°C° 0 mm 1 m/s 753 mmHg 71%
    22:00 +28°C° 0 mm 1 m/s 754 mmHg 73%
    23:00 +28°C° 0 mm 2 m/s 754 mmHg 75%
    Arată mai mult